SBI960 UMMS-UUDD

Flight info

Callsign SBI960
Flight time N/A
Altitude 35000
Route SORF2F SORFO L979 ASKIL L736 SOTOG TENRI TENR3L
Aircraft B738/M-SDE3L/L

Departure

Time 2026-05-01 13:18
Airport Minsk National Airport (UMMS)

Arrival

Time N/A
Airport Domodedovo International Airport (UUDD)
Time Latitude Longitude Altitude Speed Heading
2026-05-01 12:57 53.88735 28.03522 661 ft 0 kts 139°
2026-05-01 13:08 53.88719 28.03546 660 ft 5 kts 136°
2026-05-01 13:08 53.88702 28.03581 661 ft 6 kts 116°
2026-05-01 13:09 53.88720 28.03642 660 ft 6 kts 41°
2026-05-01 13:09 53.88762 28.03717 661 ft 7 kts 48°
2026-05-01 13:09 53.88781 28.03759 661 ft 7 kts 57°
2026-05-01 13:09 53.88767 28.03821 661 ft 6 kts 162°
2026-05-01 13:10 53.88734 28.03787 661 ft 6 kts 228°
2026-05-01 13:10 53.88697 28.03717 661 ft 7 kts 228°
2026-05-01 13:10 53.88674 28.03673 661 ft 7 kts 228°
2026-05-01 13:10 53.88639 28.03608 661 ft 7 kts 228°
2026-05-01 13:11 53.88606 28.03546 661 ft 7 kts 228°
2026-05-01 13:11 53.88570 28.03492 661 ft 7 kts 214°
2026-05-01 13:11 53.88510 28.03491 662 ft 7 kts 170°
2026-05-01 13:11 53.88482 28.03474 662 ft 6 kts 220°
2026-05-01 13:12 53.88455 28.03422 661 ft 6 kts 228°
2026-05-01 13:12 53.88428 28.03372 662 ft 6 kts 228°
2026-05-01 13:12 53.88401 28.03323 662 ft 6 kts 222°
2026-05-01 13:12 53.88361 28.03305 662 ft 7 kts 167°
2026-05-01 13:13 53.88318 28.03344 663 ft 8 kts 142°
2026-05-01 13:13 53.88275 28.03407 663 ft 9 kts 135°
2026-05-01 13:13 53.88228 28.03485 664 ft 10 kts 135°
2026-05-01 13:13 53.88171 28.03568 664 ft 11 kts 140°
2026-05-01 13:14 53.88107 28.03658 664 ft 13 kts 140°
2026-05-01 13:14 53.88037 28.03757 666 ft 14 kts 140°
2026-05-01 13:14 53.87962 28.03865 667 ft 15 kts 140°
2026-05-01 13:14 53.87885 28.03981 667 ft 15 kts 136°
2026-05-01 13:15 53.87813 28.04095 669 ft 14 kts 139°
2026-05-01 13:15 53.87742 28.04201 669 ft 13 kts 139°
2026-05-01 13:15 53.87673 28.04301 670 ft 13 kts 139°
2026-05-01 13:15 53.87607 28.04399 671 ft 13 kts 139°
2026-05-01 13:16 53.87542 28.04496 672 ft 13 kts 139°
2026-05-01 13:16 53.87473 28.04598 672 ft 14 kts 139°
2026-05-01 13:16 53.87398 28.04708 673 ft 15 kts 139°
2026-05-01 13:17 53.87153 28.05048 677 ft 15 kts 165°
2026-05-01 13:17 53.87067 28.04967 675 ft 15 kts 231°
2026-05-01 13:18 53.87111 28.04748 675 ft 23 kts 319°
2026-05-01 13:18 53.87458 28.04236 671 ft 107 kts 319°
2026-05-01 13:18 53.88227 28.03171 689 ft 171 kts 321°
2026-05-01 13:18 53.89010 28.01897 1788 ft 156 kts 315°
2026-05-01 13:19 53.89797 28.00390 2455 ft 183 kts 315°
2026-05-01 13:19 53.90872 27.99061 3188 ft 197 kts 339°
2026-05-01 13:19 53.93336 27.96944 5004 ft 202 kts 326°
2026-05-01 13:20 53.94460 27.95521 5870 ft 201 kts 328°
2026-05-01 13:20 53.95762 27.94811 6726 ft 198 kts
2026-05-01 13:20 53.97045 27.95547 7603 ft 197 kts 31°
2026-05-01 13:21 53.98625 27.99360 9302 ft 201 kts 56°
2026-05-01 13:21 53.99325 28.01426 10094 ft 202 kts 54°
2026-05-01 13:21 54.00033 28.03500 10820 ft 203 kts 54°
2026-05-01 13:21 54.00740 28.05577 11538 ft 203 kts 54°
2026-05-01 13:22 54.01444 28.07655 12278 ft 202 kts 54°
2026-05-01 13:22 54.02141 28.09716 13000 ft 201 kts 54°
2026-05-01 13:22 54.02844 28.11794 13608 ft 205 kts 54°
2026-05-01 13:22 54.03557 28.13909 14227 ft 209 kts 54°
2026-05-01 13:23 54.04289 28.16077 14672 ft 222 kts 54°
2026-05-01 13:23 54.05086 28.18440 15101 ft 238 kts 55°
2026-05-01 13:23 54.05934 28.20976 15529 ft 256 kts 57°
2026-05-01 13:23 54.06475 28.24010 15932 ft 284 kts 78°
2026-05-01 13:24 54.06594 28.27471 16409 ft 300 kts 78°
2026-05-01 13:24 54.06807 28.31089 16867 ft 315 kts 77°
2026-05-01 13:24 54.07046 28.34891 17302 ft 330 kts 77°
2026-05-01 13:25 54.08373 28.42102 18576 ft 319 kts 53°
2026-05-01 13:25 54.09620 28.45351 18684 ft 335 kts 53°
2026-05-01 13:25 54.10875 28.48786 18892 ft 347 kts 54°
2026-05-01 13:25 54.12142 28.52321 19365 ft 350 kts 54°
2026-05-01 13:26 54.13411 28.55863 19942 ft 350 kts 54°
2026-05-01 13:26 54.14685 28.59416 20508 ft 351 kts 54°
2026-05-01 13:26 54.15962 28.62975 21032 ft 353 kts 53°
2026-05-01 13:26 54.17246 28.66559 21530 ft 355 kts 53°
2026-05-01 13:27 54.18536 28.70159 22026 ft 357 kts 53°
2026-05-01 13:27 54.19831 28.73780 22527 ft 358 kts 53°
2026-05-01 13:27 54.22437 28.81084 23496 ft 362 kts 53°
2026-05-01 13:28 54.25065 28.88464 24324 ft 365 kts 53°
2026-05-01 13:28 54.26384 28.92179 24732 ft 366 kts 53°
2026-05-01 13:29 54.28949 28.99751 25503 ft 373 kts 59°
2026-05-01 13:29 54.30466 29.08400 26222 ft 389 kts 72°